DW1814 Weather Reports


Display with metric or nautical units.
time (UTC)temp
F
wind
direction
speed
MPH
gust
MPH
rain 1hr
in
rain 24hr
in
rain mn
in
humidity
%
barometer
mb
20260506185203 58 194 2.0 6.0 0.00 0.00 0.00 34 1012.5
20260506184656 57 269 0.0 5.0 0.00 0.00 0.00 34 1012.6
20260506184153 55 86 0.0 3.0 0.00 0.00 0.00 39 1012.4
20260506183649 54 259 3.0 8.0 0.00 0.00 0.00 35 1012.5
20260506183145 55 258 1.0 6.0 0.00 0.00 0.00 35 1012.3
20260506182643 56 41 3.0 4.0 0.00 0.00 0.00 34 1012.3
20260506182139 56 262 4.0 6.0 0.00 0.00 0.00 34 1012.3
20260506181637 55 265 3.0 3.0 0.00 0.00 0.00 37 1012.5
20260506181134 55 294 4.0 10.0 0.00 0.00 0.00 35 1012.6
20260506180631 55 252 2.0 5.0 0.00 0.00 0.00 35 1012.8
20260506180127 55 279 2.0 5.0 0.00 0.00 0.00 35 1012.4
20260506175624 54 340 2.0 5.0 0.00 0.00 0.00 35 1012.4
20260506175120 54 245 2.0 2.0 0.00 0.00 0.00 36 1012.5
20260506174619 55 36 1.0 9.0 0.00 0.00 0.00 36 1012.7
20260506174115 56 126 0.0 7.0 0.00 0.00 0.00 34 1012.6
20260506173613 55 263 1.0 2.0 0.00 0.00 0.00 33 1012.6
20260506173109 56 294 2.0 9.0 0.00 0.00 0.00 32 1012.6
20260506172607 57 238 2.0 3.0 0.00 0.00 0.00 32 1012.7
20260506172103 55 316 2.0 5.0 0.00 0.00 0.00 37 1012.8
20260506171601 55 56 4.0 4.0 0.00 0.00 0.00 39 1012.7
20260506171058 54 211 2.0 6.0 0.00 0.00 0.00 34 1012.7
20260506170555 55 293 4.0 6.0 0.00 0.00 0.00 33 1012.7
20260506170053 55 294 6.0 6.0 0.00 0.00 0.00 33 1013.1
20260506165551 55 251 0.0 6.0 0.00 0.00 0.00 36 1013.1
20260506165047 55 221 1.0 2.0 0.00 0.00 0.00 36 1013.0
20260506164544 55 271 3.0 6.0 0.00 0.00 0.00 35 1012.8
20260506164042 55 95 2.0 2.0 0.00 0.00 0.00 38 1012.6
20260506163537 56 258 0.0 6.0 0.00 0.00 0.00 33 1012.8
20260506163033 56 153 1.0 3.0 0.00 0.00 0.00 37 1012.9
20260506162530 56 296 0.0 4.0 0.00 0.00 0.00 37 1013.0
20260506162027 55 161 2.0 5.0 0.00 0.00 0.00 37 1012.8
20260506161525 54 209 1.0 4.0 0.00 0.00 0.00 36 1012.7
20260506161021 53 264 2.0 4.0 0.00 0.00 0.00 37 1012.9
20260506160519 53 328 1.0 3.0 0.00 0.00 0.00 35 1012.7
20260506160016 54 171 0.0 3.0 0.00 0.00 0.00 35 1012.7
20260506155514 56 143 0.0 2.0 0.00 0.00 0.00 35 1012.7
20260506153646 53 91 0.0 4.0 0.00 0.00 0.00 39 1013.0
20260506153143 53 297 0.0 4.0 0.00 0.00 0.00 36 1012.8
20260506152639 53 132 0.0 2.0 0.00 0.00 0.00 41 1012.5
20260506152137 53 53 6.0 6.0 0.00 0.00 0.00 41 1013.0
20260506151636 53 329 0.0 3.0 0.00 0.00 0.00 41 1013.0
20260506151132 53 310 1.0 4.0 0.00 0.00 0.00 40 1012.8
20260506150629 53 110 0.0 3.0 0.00 0.00 0.00 43 1013.1
20260506150126 53 236 2.0 3.0 0.00 0.00 0.00 42 1013.0
20260506145623 53 284 3.0 3.0 0.00 0.00 0.00 40 1013.0
20260506145120 53 145 1.0 3.0 0.00 0.00 0.00 43 1013.0
20260506144617 53 283 4.0 4.0 0.00 0.00 0.00 39 1012.8
20260506144114 54 6 2.0 5.0 0.00 0.00 0.00 37 1013.2
20260506143612 53 89 0.0 4.0 0.00 0.00 0.00 42 1013.0
20260506143109 52 272 0.0 3.0 0.00 0.00 0.00 41 1013.2
20260506142607 51 282 2.0 2.0 0.00 0.00 0.00 41 1013.0
20260506142105 51 259 2.0 4.0 0.00 0.00 0.00 39 1013.0
20260506141602 51 37 0.0 2.0 0.00 0.00 0.00 42 1013.0
20260506141101 52 276 2.0 2.0 0.00 0.00 0.00 40 1012.9
20260506140558 53 271 3.0 3.0 0.00 0.00 0.00 40 1013.0
20260506140055 52 274 2.0 2.0 0.00 0.00 0.00 38 1012.8
20260506135552 51 309 2.0 2.0 0.00 0.00 0.00 42 1012.8
20260506135048 51 290 2.0 4.0 0.00 0.00 0.00 44 1012.8
20260506134545 52 334 2.0 2.0 0.00 0.00 0.00 42 1012.8
20260506134040 53 60 0.0 3.0 0.00 0.00 0.00 41 1012.6
20260506133538 52 115 0.0 2.0 0.00 0.00 0.00 43 1012.6
20260506133035 51 147 0.0 1.0 0.00 0.00 0.00 41 1012.4
20260506132532 51 55 0.0 1.0 0.00 0.00 0.00 44 1012.0
20260506132029 51 55 0.0 1.0 0.00 0.00 0.00 45 1012.3
20260506131526 51 55 0.0 2.0 0.00 0.00 0.00 47 1012.4
20260506131023 52 333 1.0 2.0 0.00 0.00 0.00 46 1012.3
20260506130519 52 330 0.0 1.0 0.00 0.00 0.00 48 1012.3
20260506130017 52 332 1.0 2.0 0.00 0.00 0.00 51 1012.2
20260506125515 52 48 1.0 2.0 0.00 0.00 0.00 52 1012.2
20260506125013 51 83 1.0 2.0 0.00 0.00 0.00 55 1011.9
20260506124510 51 41 1.0 2.0 0.00 0.00 0.00 56 1012.0
20260506124008 51 55 1.0 2.0 0.00 0.00 0.00 56 1011.9
20260506123506 52 67 2.0 2.0 0.00 0.00 0.00 55 1011.9
20260506123004 50 70 2.0 2.0 0.00 0.00 0.00 63 1011.9
20260506122500 47 93 2.0 2.0 0.00 0.00 0.00 68 1011.8
20260506121958 44 73 2.0 2.0 0.00 0.00 0.00 71 1011.8
20260506121455 44 56 2.0 2.0 0.00 0.00 0.00 72 1011.7
20260506120952 42 78 2.0 2.0 0.00 0.00 0.00 74 1011.5
20260506120449 42 86 2.0 2.0 0.00 0.00 0.00 76 1011.6
20260506115946 42 98 1.0 2.0 0.00 0.00 0.00 80 1011.3
20260506115445 40 78 2.0 3.0 0.00 0.00 0.00 87 1011.3
20260506114943 37 64 2.0 2.0 0.00 0.00 0.00 93 1011.3
20260506114440 35 81 2.0 2.0 0.00 0.00 0.00 93 1011.5
20260506113938 34 72 2.0 2.0 0.00 0.00 0.00 93 1011.4
20260506113436 34 72 2.0 2.0 0.00 0.00 0.00 93 1011.5
20260506112932 34 66 2.0 2.0 0.00 0.00 0.00 93 1011.4
20260506112430 34 62 2.0 2.0 0.00 0.00 0.00 92 1011.2
20260506111927 33 60 2.0 2.0 0.00 0.00 0.00 92 1011.4
20260506111425 33 61 2.0 2.0 0.00 0.00 0.00 91 1011.5
20260506110922 33 54 2.0 2.0 0.00 0.00 0.00 91 1011.4
20260506110420 33 62 2.0 2.0 0.00 0.00 0.00 91 1011.4
20260506105916 33 82 1.0 2.0 0.00 0.00 0.00 90 1011.2
20260506105412 33 85 1.0 2.0 0.00 0.00 0.00 90 1011.4
20260506104909 33 57 2.0 2.0 0.00 0.00 0.00 89 1011.0
20260506104407 33 73 1.0 2.0 0.00 0.00 0.00 88 1011.2
20260506103905 33 68 1.0 2.0 0.00 0.00 0.00 88 1010.9
20260506103402 34 72 2.0 2.0 0.00 0.00 0.00 88 1010.7
20260506102859 34 73 1.0 2.0 0.00 0.00 0.00 88 1010.8
20260506102357 34 68 2.0 2.0 0.00 0.00 0.00 88 1010.7
20260506101854 34 61 2.0 2.0 0.00 0.00 0.00 88 1010.5
20260506101350 35 67 2.0 2.0 0.00 0.00 0.00 87 1010.6
20260506100848 35 81 1.0 2.0 0.00 0.00 0.00 87 1010.4
20260506100346 35 73 1.0 2.0 0.00 0.00 0.00 86 1010.7
20260506095844 35 74 2.0 2.0 0.00 0.00 0.00 86 1010.6
20260506095341 35 78 1.0 2.0 0.00 0.00 0.00 85 1010.7
20260506094838 35 79 2.0 2.0 0.00 0.00 0.00 85 1010.8
20260506094337 35 83 1.0 1.0 0.00 0.00 0.00 86 1010.7
20260506093834 35 83 1.0 2.0 0.00 0.00 0.00 85 1010.5
20260506093331 35 63 1.0 2.0 0.00 0.00 0.00 85 1010.6
20260506092829 35 53 2.0 2.0 0.00 0.00 0.00 85 1010.5
20260506092327 35 51 2.0 2.0 0.00 0.00 0.00 85 1010.6
20260506091818 35 52 2.0 2.0 0.00 0.00 0.00 86 1010.4
20260506091315 35 51 2.0 2.0 0.00 0.00 0.00 85 1010.7
20260506090813 35 70 1.0 2.0 0.00 0.00 0.00 84 1010.7
20260506090310 35 66 2.0 2.0 0.00 0.00 0.00 84 1010.6
20260506085806 35 58 2.0 2.0 0.00 0.00 0.00 83 1010.8
20260506085305 36 65 2.0 2.0 0.00 0.00 0.00 83 1010.6
20260506084800 36 56 1.0 2.0 0.00 0.00 0.00 82 1010.7
20260506084256 36 49 2.0 2.0 0.00 0.00 0.00 81 1010.7
20260506083753 36 42 2.0 3.0 0.00 0.00 0.00 81 1010.5
20260506083251 36 42 2.0 2.0 0.00 0.00 0.00 80 1010.5
20260506082748 36 61 2.0 2.0 0.00 0.00 0.00 79 1010.7
20260506082249 36 48 2.0 2.0 0.00 0.00 0.00 79 1010.4
20260506081747 36 54 2.0 2.0 0.00 0.00 0.00 79 1010.4
20260506081244 36 53 2.0 2.0 0.00 0.00 0.00 77 1010.4
20260506080742 37 72 1.0 2.0 0.00 0.00 0.00 76 1010.4
20260506080238 37 73 2.0 2.0 0.00 0.00 0.00 76 1010.5
20260506073222 39 82 1.0 2.0 0.00 0.00 0.00 72 1010.4
20260506072719 39 56 2.0 2.0 0.00 0.00 0.00 70 1010.2
20260506072217 39 78 1.0 2.0 0.00 0.00 0.00 69 1010.2
20260506071714 40 58 2.0 2.0 0.00 0.00 0.00 69 1010.2
20260506071212 40 70 2.0 2.0 0.00 0.00 0.00 67 1010.0
20260506070709 41 86 2.0 2.0 0.00 0.00 0.00 67 1010.2
20260506070206 41 86 1.0 2.0 0.00 0.00 0.00 66 1010.1
20260506062143 44 71 2.0 2.0 0.00 0.00 0.00 60 1010.3
20260506061639 44 78 1.0 2.0 0.00 0.00 0.00 59 1010.1
20260506061136 45 45 1.0 3.0 0.00 0.00 0.00 54 1010.4
20260506060634 45 42 2.0 3.0 0.00 0.00 0.00 55 1010.1
20260506060131 45 51 2.0 3.0 0.00 0.00 0.00 55 1010.1
20260506051103 46 48 2.0 4.0 0.00 0.00 0.00 54 1010.0
20260506050601 46 31 2.0 3.0 0.00 0.00 0.00 53 1009.9
20260506045051 46 49 3.0 3.0 0.00 0.00 0.00 55 1009.6
20260506044549 46 40 3.0 3.0 0.00 0.00 0.00 59 1009.5
20260506044046 46 60 2.0 2.0 0.00 0.00 0.00 60 1009.8
20260506043543 46 73 2.0 2.0 0.00 0.00 0.00 59 1009.8
20260506043042 46 62 2.0 3.0 0.00 0.00 0.00 54 1009.8
20260506042540 47 82 1.0 2.0 0.00 0.00 0.00 56 1009.8
20260506042038 47 63 2.0 2.0 0.00 0.00 0.00 56 1009.9
20260506041536 48 79 1.0 2.0 0.00 0.00 0.00 52 1009.8
20260506041032 48 79 1.0 2.0 0.00 0.00 0.00 51 1009.6
20260506040531 49 64 2.0 2.0 0.00 0.00 0.00 47 1009.7
20260506040026 49 40 2.0 2.0 0.00 0.00 0.00 46 1009.5
20260506035523 49 71 1.0 2.0 0.00 0.00 0.00 46 1009.7
20260506035020 49 49 1.0 2.0 0.00 0.00 0.00 45 1009.6
20260506034518 50 56 2.0 2.0 0.00 0.00 0.00 46 1009.9
20260506034014 50 52 0.0 2.0 0.00 0.00 0.00 45 1009.5
20260506033512 50 19 1.0 2.0 0.00 0.00 0.00 44 1009.4
20260506033009 50 27 3.0 4.0 0.00 0.00 0.00 43 1009.1
20260506032506 50 30 2.0 5.0 0.00 0.00 0.00 46 1009.1
20260506032002 50 23 2.0 6.0 0.00 0.00 0.00 46 1009.0
20260506031500 50 21 3.0 9.0 0.00 0.00 0.00 46 1009.2
20260506030957 50 28 3.0 6.0 0.00 0.00 0.00 47 1009.0
20260506030455 50 44 3.0 3.0 0.00 0.00 0.00 47 1009.0
20260506025951 50 27 2.0 4.0 0.00 0.00 0.00 47 1008.9
20260506025448 49 19 2.0 5.0 0.00 0.00 0.00 49 1009.1
20260506024945 48 8 2.0 3.0 0.00 0.00 0.00 52 1009.2
20260506024442 47 61 2.0 2.0 0.00 0.00 0.00 64 1009.3
20260506023937 47 62 2.0 2.0 0.00 0.00 0.00 61 1009.0
20260506023435 48 52 2.0 3.0 0.00 0.00 0.00 59 1009.0
20260506022931 48 47 3.0 3.0 0.00 0.00 0.00 58 1008.7
20260506022429 48 65 2.0 2.0 0.00 0.00 0.00 57 1008.7
20260506021927 48 73 2.0 2.0 0.00 0.00 0.00 58 1008.7
20260506021424 49 72 2.0 2.0 0.00 0.00 0.00 57 1008.6
20260506020921 49 67 2.0 3.0 0.00 0.00 0.00 54 1008.5
20260506020419 49 73 2.0 2.0 0.00 0.00 0.00 52 1008.5
20260506015916 49 69 2.0 2.0 0.00 0.00 0.00 50 1008.4
20260506015413 50 83 1.0 2.0 0.00 0.00 0.00 47 1008.4
20260506014910 50 74 2.0 2.0 0.00 0.00 0.00 46 1008.2
20260506014407 50 92 1.0 2.0 0.00 0.00 0.00 46 1008.1
20260506013903 50 75 2.0 2.0 0.00 0.00 0.00 44 1008.1
20260506013402 50 82 2.0 2.0 0.00 0.00 0.00 47 1008.1
20260506012857 50 86 1.0 2.0 0.00 0.00 0.00 49 1007.9
20260506012354 51 66 2.0 2.0 0.00 0.00 0.00 47 1007.4
20260506011851 51 81 2.0 2.0 0.00 0.00 0.00 45 1007.9
20260506011348 51 55 2.0 2.0 0.00 0.00 0.00 44 1007.6
20260506010845 52 80 1.0 1.0 0.00 0.00 0.00 42 1007.8
20260506010344 52 60 1.0 2.0 0.00 0.00 0.00 41 1007.4
20260506005840 53 26 1.0 2.0 0.00 0.00 0.00 40 1007.5
20260506005337 53 25 2.0 3.0 0.00 0.00 0.00 39 1007.4
20260506004833 53 19 1.0 2.0 0.00 0.00 0.00 39 1007.5
20260506004331 53 341 1.0 4.0 0.00 0.00 0.00 39 1007.3
20260506003826 53 6 2.0 2.0 0.00 0.00 0.00 37 1007.2
20260506003323 53 317 2.0 2.0 0.00 0.00 0.00 39 1007.4
20260506002819 54 0 0.0 4.0 0.00 0.00 0.00 39 1007.2
20260506002316 54 40 5.0 7.0 0.00 0.00 0.00 38 1007.3
20260506001811 54 31 4.0 7.0 0.00 0.00 0.00 38 1007.3
20260506001309 54 359 4.0 7.0 0.00 0.00 0.00 37 1007.4
20260506000806 55 294 1.0 5.0 0.00 0.00 0.00 37 1007.4
20260506000304 55 8 2.0 6.0 0.00 0.00 0.00 36 1007.2
20260505235800 55 288 2.0 3.0 0.00 0.00 0.00 38 1007.2
20260505235258 55 5 2.0 5.0 0.00 0.00 0.00 37 1007.3
20260505234754 55 18 2.0 2.0 0.00 0.00 0.00 39 1007.2
20260505234252 55 31 1.0 4.0 0.00 0.00 0.00 36 1007.2
20260505233748 55 286 2.0 3.0 0.00 0.00 0.00 35 1007.3
20260505233247 55 311 2.0 4.0 0.00 0.00 0.00 37 1007.3
20260505232744 55 41 2.0 2.0 0.00 0.00 0.00 38 1007.2
20260505232241 55 318 2.0 5.0 0.00 0.00 0.00 35 1007.3
20260505231737 55 299 2.0 2.0 0.00 0.00 0.00 36 1007.4
20260505231237 55 277 2.0 2.0 0.00 0.00 0.00 35 1007.4
20260505230734 55 300 0.0 2.0 0.00 0.00 0.00 35 1007.2
20260505230231 55 12 2.0 3.0 0.00 0.00 0.00 36 1007.4
20260505225728 55 25 4.0 5.0 0.00 0.00 0.00 36 1007.5
20260505225225 55 297 0.0 5.0 0.00 0.00 0.00 34 1007.6
20260505224720 55 310 0.0 3.0 0.00 0.00 0.00 33 1007.5
20260505224218 55 329 2.0 3.0 0.00 0.00 0.00 33 1007.5
20260505223715 55 23 1.0 3.0 0.00 0.00 0.00 34 1007.6
20260505223211 55 15 1.0 2.0 0.00 0.00 0.00 36 1007.5
20260505222707 55 293 2.0 4.0 0.00 0.00 0.00 34 1007.6
20260505222203 55 300 2.0 2.0 0.00 0.00 0.00 35 1007.4
20260505221701 55 179 2.0 5.0 0.00 0.00 0.00 33 1007.5
20260505221157 55 51 0.0 4.0 0.00 0.00 0.00 36 1007.4
20260505220654 55 310 0.0 2.0 0.00 0.00 0.00 35 1007.5
20260505220152 55 333 1.0 4.0 0.00 0.00 0.00 33 1007.7
20260505215649 55 4 1.0 4.0 0.00 0.00 0.00 33 1007.8
20260505215147 56 276 4.0 4.0 0.00 0.00 0.00 33 1007.8
20260505214645 56 0 0.0 5.0 0.00 0.00 0.00 34 1007.6
20260505214142 56 313 1.0 2.0 0.00 0.00 0.00 34 1007.6
20260505213640 55 295 2.0 6.0 0.00 0.00 0.00 33 1007.5
20260505213136 55 299 2.0 3.0 0.00 0.00 0.00 32 1007.5
20260505212632 55 316 3.0 5.0 0.00 0.00 0.00 32 1007.7
20260505212130 56 5 2.0 6.0 0.00 0.00 0.00 30 1007.7
20260505211626 57 295 3.0 4.0 0.00 0.00 0.00 31 1007.5
20260505211124 57 47 0.0 2.0 0.00 0.00 0.00 33 1007.6
20260505210621 56 174 0.0 4.0 0.00 0.00 0.00 33 1007.5
20260505210117 56 326 3.0 5.0 0.00 0.00 0.00 30 1007.7
20260505205615 56 345 2.0 5.0 0.00 0.00 0.00 32 1007.4
20260505205113 56 18 3.0 5.0 0.00 0.00 0.00 30 1007.4
20260505204609 56 250 4.0 6.0 0.00 0.00 0.00 31 1007.7
20260505204107 56 290 2.0 4.0 0.00 0.00 0.00 32 1007.7
20260505203604 56 245 3.0 5.0 0.00 0.00 0.00 31 1007.8
20260505203101 56 145 2.0 4.0 0.00 0.00 0.00 33 1007.9
20260505202556 56 228 1.0 4.0 0.00 0.00 0.00 32 1008.1
20260505202053 57 146 0.0 5.0 0.00 0.00 0.00 31 1007.8
20260505201549 57 180 2.0 2.0 0.00 0.00 0.00 33 1007.8
20260505201047 56 324 2.0 4.0 0.00 0.00 0.00 35 1007.9
20260505200545 56 4 3.0 5.0 0.00 0.00 0.00 33 1007.6
20260505200042 56 333 2.0 4.0 0.00 0.00 0.00 32 1008.1
20260505195538 57 260 5.0 6.0 0.00 0.00 0.00 30 1007.9
20260505195035 56 307 2.0 3.0 0.00 0.00 0.00 33 1007.8
20260505194532 56 264 0.0 5.0 0.00 0.00 0.00 30 1007.8
20260505194027 56 33 1.0 3.0 0.00 0.00 0.00 29 1008.2
20260505193525 56 248 2.0 4.0 0.00 0.00 0.00 29 1007.9
20260505193022 56 284 0.0 5.0 0.00 0.00 0.00 28 1008.2
20260505192521 56 269 2.0 5.0 0.00 0.00 0.00 28 1007.8
20260505192018 57 330 2.0 6.0 0.00 0.00 0.00 29 1008.2
20260505191516 57 263 2.0 4.0 0.00 0.00 0.00 31 1008.4
20260505191014 57 246 0.0 6.0 0.00 0.00 0.00 32 1008.4
20260505190508 57 334 3.0 4.0 0.00 0.00 0.00 29 1008.3
20260505190004 57 274 3.0 7.0 0.00 0.00 0.00 30 1008.3
20260505185501 56 135 0.0 3.0 0.00 0.00 0.00 33 1008.1